Terminal Aerodrome Forecast
Issued by NWS

Home | Current Version | Previous Version | Text Only | Print | Product List | Glossary On
Versions: 1 2 3 4 5 6 7 8 9 10 11 12 13 14 15 16 17 18 19
382
FTAK31 PAJN 271734
TAFAYA
TAF
PAYA 271734Z 2718/2818 00000KT P6SM SKC
     FM272000 20006KT P6SM SCT070
     FM280500 00000KT P6SM BKN050
      AMD LTD TO CLD VIS AND WIND 2801/2809=

USA.gov is the U.S. government's official web portal to all federal, state and local government web resources and services.